RH
1 2 2 2 3 2 2 4 6 9 8 7 15 26 38 44 32 20 17 10 14 33 42 42 44 46 51 56 57 56 51 46 49 53 55 55 49 44 46 50 50 50 46 41 39 40 38 37 38 35 35 49 68 80 80 75 69 56 46 51 60 53 47 54 53 46 48 47 40 44 51 50 50 48 45 50 56 56 61 66 69 77 76 64 71 85 68
0 1 1 2 3 2 2 3 5 9 10 7 16 32 39 37 30 26 20 11 25 47 45 41 46 48 51 53 54 58 56 51 53 53 53 52 45 40 47 52 51 49 49 44 41 42 39 37 43 38 32 55 82 85 81 76 64 60 62 63 70 63 45 50 55 43 43 48 44 48 55 51 46 47 49 56 61 64 68 65 66 79 78 64 74 85 62
0 1 1 1 3 2 1 3 4 8 11 8 15 30 33 27 29 32 20 12 30 46 40 40 46 49 52 50 46 51 56 58 58 55 55 54 47 44 49 53 51 49 51 47 41 44 41 34 42 42 34 56 90 93 85 78 68 76 89 84 80 69 48 44 49 42 41 46 43 44 50 48 45 50 57 63 66 68 68 66 73 83 73 60 71 76 54
1 1 1 0 2 2 1 2 4 7 11 11 12 21 26 26 33 40 34 25 28 32 33 36 40 44 46 40 36 41 48 57 62 60 57 56 52 47 46 51 50 47 52 48 39 45 49 39 41 45 36 47 78 91 87 82 82 91 99 95 80 62 50 48 46 42 42 42 39 38 41 46 50 54 62 68 72 70 65 69 77 77 69 63 64 63 57
1 1 1 1 1 2 2 1 3 6 10 14 18 23 27 30 36 42 41 37 33 30 32 36 38 42 41 35 37 44 46 49 54 57 57 58 59 52 46 51 50 44 48 44 35 44 53 44 38 42 43 45 62 82 85 78 87 96 93 91 77 55 53 58 52 52 51 43 38 36 37 44 46 49 61 73 79 74 69 72 70 65 69 66 53 53 62
3 1 1 1 1 2 2 1 2 6 10 14 24 33 32 31 33 33 34 42 42 37 40 49 51 46 42 41 42 44 44 42 42 48 54 55 56 52 46 51 52 46 46 44 37 41 48 46 41 41 48 51 51 64 75 78 93 96 78 74 70 53 53 61 55 52 52 47 44 40 42 46 45 47 55 66 79 80 71 69 64 62 69 63 50 54 62
4 2 1 1 1 1 2 2 1 5 9 10 21 34 35 30 28 29 35 43 45 43 48 59 57 44 39 44 46 43 43 43 41 43 48 49 51 49 42 45 48 43 46 47 39 37 38 35 39 42 44 49 48 48 59 77 93 85 62 62 67 56 56 66 62 55 51 49 49 50 51 50 48 53 54 56 69 76 71 66 63 65 69 62 57 63 62
4 4 2 1 1 0 1 2 1 4 7 8 17 30 35 34 31 35 41 40 38 41 44 49 50 40 34 39 44 44 43 45 44 42 43 45 47 46 42 48 51 45 47 50 42 43 43 30 33 44 40 42 49 45 44 58 71 64 51 57 62 54 53 58 58 58 53 47 50 54 56 55 50 50 53 55 61 68 71 70 67 70 74 68 67 74 68
5 5 4 1 1 0 0 2 1 3 5 8 17 24 25 26 26 31 39 37 33 36 36 37 39 35 33 39 42 42 41 43 44 43 47 52 51 50 50 53 58 54 52 53 51 56 58 46 44 52 45 39 45 46 42 45 54 57 56 58 57 53 54 53 52 58 54 47 53 57 56 60 60 56 56 55 58 65 69 69 71 71 69 67 71 75 66
7 7 5 3 2 1 0 1 1 2 3 6 16 21 21 26 27 26 32 33 32 34 36 35 34 37 47 52 50 49 45 42 43 40 45 57 62 62 60 55 52 50 48 56 66 70 68 59 55 56 53 47 43 46 51 51 51 55 59 62 61 58 59 54 51 60 57 45 49 54 55 61 61 57 58 55 55 62 62 61 67 65 57 62 68 62 51
8 8 7 4 3 1 1 2 0 2 4 5 14 19 19 28 37 33 31 33 37 39 35 32 35 44 57 58 52 52 44 40 47 44 42 60 70 67 66 56 40 41 55 68 77 77 70 63 58 54 54 52 48 51 58 58 53 50 52 62 67 64 64 57 49 57 61 51 47 50 54 59 52 45 49 48 46 53 57 57 60 57 51 55 56 48 42
11 9 8 6 5 2 2 3 2 3 5 5 11 14 12 20 34 35 29 32 39 36 30 41 58 65 67 63 55 55 54 54 63 60 53 64 71 65 65 54 35 46 74 79 70 68 68 66 64 61 58 58 56 57 61 62 60 51 46 54 62 62 61 56 51 59 64 58 51 44 40 42 43 43 47 44 41 46 53 55 55 54 52 51 50 47 46
19 13 10 8 7 5 3 4 3 3 6 5 7 10 9 13 26 32 28 30 35 32 33 56 79 78 69 67 61 60 65 64 60 60 61 65 65 67 76 73 64 74 88 81 69 70 69 63 60 61 63 65 64 67 70 69 64 57 51 51 55 59 60 57 57 62 61 54 49 39 28 28 38 50 52 50 51 53 53 53 53 53 52 52 54 53 48
29 20 15 11 9 8 5 5 5 4 6 6 5 7 7 9 20 29 29 27 31 36 39 50 63 62 59 63 61 55 57 54 44 49 63 68 70 82 93 95 92 91 88 81 74 66 55 46 43 46 53 53 50 59 73 75 69 64 61 57 51 52 57 59 57 52 49 53 56 46 36 37 46 55 54 50 52 53 51 51 49 45 44 46 51 51 48
42 29 24 17 12 10 8 6 7 6 5 6 7 7 6 6 11 18 25 30 32 36 40 40 45 53 56 58 55 46 44 44 40 48 64 72 83 96 99 98 95 89 82 75 64 50 42 38 35 34 37 34 28 36 54 67 73 71 64 58 55 53 55 55 54 50 48 57 65 58 45 42 48 57 57 51 49 52 55 59 56 46 39 40 46 49 50
61 44 34 26 20 15 10 8 8 7 7 7 6 7 7 6 7 8 20 34 30 29 45 53 53 58 58 54 52 46 41 39 37 41 50 63 85 98 95 95 94 88 82 70 52 42 39 36 34 32 32 31 25 26 34 43 58 70 69 62 60 59 58 56 59 62 56 54 61 60 47 42 52 61 60 54 54 60 64 63 60 53 45 44 48 53 55
76 62 49 38 31 23 16 12 9 7 9 8 7 9 7 6 9 8 17 30 26 29 53 63 54 49 46 44 45 42 40 40 35 32 39 58 82 91 91 93 91 88 87 67 44 42 41 35 37 37 35 37 33 29 31 30 37 54 65 65 66 65 65 67 71 72 65 59 63 60 44 39 52 60 58 57 60 63 61 56 56 58 57 52 52 58 61
84 77 65 53 44 35 25 19 12 8 9 8 9 13 10 7 9 9 17 28 22 29 53 58 49 49 47 46 49 43 40 42 36 34 43 56 68 77 85 88 79 79 85 62 36 40 42 34 37 37 37 46 42 32 32 31 30 39 44 51 66 71 67 67 71 71 67 64 67 64 49 43 52 57 58 64 67 61 56 54 54 55 53 47 47 55 61
85 83 78 68 58 48 38 29 19 12 10 8 11 15 13 11 10 7 17 29 21 26 48 52 51 58 55 50 54 48 44 47 45 40 41 45 58 72 75 68 61 67 76 61 40 39 39 35 36 33 36 48 42 28 31 32 29 32 30 30 46 59 60 63 67 67 63 61 67 66 52 48 59 66 66 68 63 51 46 49 47 45 45 43 45 54 58
85 85 84 78 71 62 53 42 30 19 13 9 10 13 13 15 16 9 15 27 25 28 44 47 47 54 52 49 54 50 46 50 47 39 35 42 62 70 54 43 50 58 62 57 46 37 35 37 38 35 40 46 36 29 39 41 33 29 26 25 35 48 56 65 69 65 57 60 69 62 46 48 62 65 63 65 58 39 31 38 41 40 44 46 48 54 59
86 86 84 82 80 75 68 60 46 31 20 13 10 14 17 18 19 15 16 22 23 27 37 42 44 49 47 46 51 50 50 54 50 43 43 52 63 58 39 37 47 46 42 45 42 36 37 40 39 39 41 39 33 35 42 45 46 43 34 33 40 45 47 49 52 51 49 56 62 51 44 59 65 47 37 46 47 35 31 39 41 38 41 46 50 57 62
87 87 85 83 83 82 79 75 65 49 34 20 13 19 24 19 17 19 21 24 27 29 31 35 42 48 45 41 39 38 42 47 45 41 44 51 54 52 47 47 47 40 36 38 37 36 39 41 41 43 41 37 40 44 37 36 47 47 37 35 39 42 41 38 38 42 43 45 45 35 31 47 54 42 31 31 31 31 34 39 41 40 41 46 52 61 64
89 88 87 84 84 85 84 83 78 69 56 38 23 22 27 23 19 18 20 27 36 38 36 35 40 47 49 46 40 37 38 40 36 33 38 46 48 48 49 49 47 45 44 43 42 41 41 40 40 40 39 39 42 43 40 44 50 45 39 38 36 37 39 37 40 49 45 34 31 28 23 27 35 37 38 35 32 34 37 39 43 46 47 51 56 62 65
93 90 89 87 86 85 86 86 84 80 75 64 46 31 27 29 26 19 18 26 35 39 40 43 48 55 59 55 47 42 42 43 41 36 36 41 45 46 47 47 47 49 49 49 49 44 38 40 44 41 39 40 38 36 41 48 48 44 44 46 43 42 43 39 40 47 42 30 28 29 27 27 28 27 31 35 36 38 40 43 47 48 51 58 62 62 64
98 94 91 91 89 87 88 89 88 85 82 80 67 43 32 36 33 25 27 32 28 27 31 37 48 58 59 55 51 47 43 43 45 43 39 40 46 53 52 45 43 48 51 52 53 48 39 39 44 45 46 45 39 37 41 42 42 45 45 40 39 41 42 41 42 43 37 30 27 25 24 27 27 26 28 31 33 37 42 47 50 52 57 61 61 61 67
99 98 95 94 92 90 90 89 90 90 86 85 79 57 41 42 37 28 39 48 37 25 24 32 47 58 57 59 62 56 48 46 47 48 47 45 48 53 51 44 43 46 46 46 50 51 44 39 40 45 49 47 39 40 45 42 39 42 38 33 37 40 38 38 42 44 43 38 30 28 31 32 30 32 36 37 39 43 46 50 55 61 65 67 66 65 67
99 99 98 97 95 94 95 93 93 94 89 88 87 67 46 46 43 33 43 60 53 33 21 26 44 57 62 72 74 60 53 57 54 51 55 55 51 50 48 47 52 56 51 47 47 46 42 42 47 50 52 49 45 47 48 43 43 47 44 37 41 42 37 36 41 43 43 37 29 28 33 32 28 31 40 45 46 48 51 55 58 60 63 69 72 70 68
100 98 98 101 98 97 99 97 95 97 93 90 91 73 50 51 55 44 42 55 61 53 40 34 38 42 48 65 71 61 62 67 61 57 63 61 55 53 51 49 55 58 54 50 48 47 49 54 56 52 48 46 46 50 51 50 57 60 50 38 37 35 30 33 40 39 31 23 21 26 31 29 25 27 36 46 51 54 57 57 56 55 56 62 68 70 72
101 100 98 100 100 99 101 99 98 99 95 91 90 77 60 61 66 58 49 49 56 62 57 42 33 34 42 59 72 74 71 67 60 64 70 63 57 57 57 54 55 52 48 46 47 49 52 53 49 48 49 46 44 49 53 56 58 50 33 27 33 32 25 25 27 26 22 19 21 27 30 28 27 31 39 47 51 55 57 54 53 57 56 57 65 71 71
100 100 100 100 100 99 101 100 99 99 96 92 89 78 64 63 68 69 63 57 55 60 56 39 30 39 56 74 87 88 79 69 67 73 75 70 65 64 61 57 53 48 48 49 47 47 51 49 45 52 60 54 46 49 55 58 59 46 25 20 28 30 28 29 25 22 24 23 24 31 34 33 37 43 46 47 46 49 55 54 53 58 58 56 66 74 69
100 99 100 100 99 99 100 100 100 99 96 93 90 79 65 63 73 80 76 65 59 58 53 40 33 36 51 75 95 95 83 78 79 77 71 69 68 64 59 57 54 51 53 53 50 52 58 54 48 55 65 63 56 57 59 61 64 52 27 20 30 35 34 35 32 30 30 29 32 41 43 41 44 46 45 47 46 48 58 61 56 56 60 60 64 69 67
99 101 99 98 98 98 99 99 99 99 97 94 92 88 78 74 82 84 73 64 64 61 50 43 36 29 35 65 95 101 91 86 86 80 74 75 74 66 60 61 61 59 57 55 56 62 66 61 56 60 68 65 58 61 65 64 60 46 25 21 34 42 42 43 43 41 40 40 43 47 44 40 43 42 41 48 51 52 61 67 59 54 60 63 63 66 66
89 98 98 98 97 96 96 98 97 97 96 92 90 90 88 84 82 76 64 64 73 67 48 38 35 30 34 54 76 87 88 86 85 83 80 80 79 74 69 70 70 67 62 58 59 64 67 66 64 66 69 63 55 63 73 67 50 36 27 26 30 34 37 42 42 40 41 42 44 45 40 35 36 38 41 48 52 52 56 60 58 58 66 71 72 73 71
75 89 96 97 95 92 91 92 91 93 95 93 91 91 89 83 78 72 65 66 69 59 42 35 36 36 37 40 48 67 82 80 74 75 76 76 78 79 77 75 74 73 67 61 61 68 74 74 72 74 75 70 64 68 72 60 43 36 36 34 32 34 38 42 43 43 45 49 51 50 45 39 40 45 49 52 54 52 53 57 60 66 73 76 78 77 74
79 93 97 95 92 89 84 85 89 93 93 93 94 93 88 82 81 82 78 74 69 56 42 38 40 43 41 34 37 63 86 83 72 73 76 78 82 82 75 71 73 73 68 61 64 75 78 74 73 77 79 77 75 73 66 51 40 39 38 34 32 34 36 37 38 39 43 51 57 58 57 57 59 60 59 58 59 59 61 65 69 72 75 77 77 76 76
89 98 97 92 88 85 82 85 91 94 93 93 93 90 86 84 87 92 90 86 80 69 53 41 42 48 45 35 40 63 81 80 79 83 81 79 82 81 74 71 73 74 72 70 73 77 73 67 70 79 81 78 73 65 54 45 41 38 34 29 28 29 29 29 31 34 38 45 54 60 64 67 68 66 63 63 64 65 68 71 74 76 78 77 77 78 80
93 99 95 91 88 85 84 88 91 92 93 93 89 87 89 89 90 96 99 95 91 86 71 55 52 52 42 33 44 64 71 69 73 79 79 78 78 75 74 74 71 69 75 82 82 78 72 68 71 77 75 68 58 48 42 42 41 37 33 30 28 29 31 32 34 39 42 44 47 53 60 64 67 69 69 68 67 68 70 72 74 76 77 77 77 78 78
95 98 93 91 89 85 82 85 87 85 84 85 84 86 90 90 87 90 93 91 88 86 77 67 61 53 39 34 45 57 60 62 66 68 68 70 70 69 74 76 68 63 69 73 70 70 73 76 81 81 71 56 47 43 42 43 41 37 35 34 31 31 33 34 36 41 46 45 40 39 43 50 55 59 63 66 67 67 69 71 72 72 74 76 75 73 73
94 97 96 95 91 85 82 84 81 76 77 84 88 85 81 81 83 81 79 80 81 79 75 71 65 53 43 45 52 53 52 59 66 67 64 63 61 62 69 68 60 58 64 63 58 62 69 75 86 90 78 60 52 47 43 42 41 39 37 36 34 34 36 39 40 41 43 43 38 35 37 42 44 46 50 56 60 61 64 70 72 70 71 73 72 71 75
96 97 98 95 88 84 85 84 79 77 82 90 90 79 70 74 77 70 68 77 81 73 68 69 65 55 48 49 51 49 48 52 61 67 67 63 56 54 57 56 51 53 59 59 59 60 60 65 77 80 65 53 52 50 44 43 45 42 39 39 38 36 38 40 41 41 43 46 46 46 48 51 53 54 54 55 56 57 60 63 65 64 64 67 69 71 72
100 98 96 93 89 87 87 84 80 81 83 84 83 79 77 77 73 64 68 80 77 61 56 61 61 58 55 52 48 49 52 55 58 61 62 60 54 50 51 53 51 50 53 57 62 63 62 71 83 73 49 38 43 46 45 47 48 44 42 41 38 36 39 42 43 43 46 52 56 54 51 53 58 62 62 62 63 65 64 63 63 61 60 63 66 65 63
99 99 97 95 91 88 86 85 85 86 83 80 83 85 81 76 73 72 74 77 67 54 53 56 57 57 57 55 55 58 59 59 60 58 56 55 53 51 56 60 55 48 50 58 63 65 71 81 80 60 41 42 48 44 41 43 43 39 38 37 35 35 40 45 48 46 43 49 57 58 55 56 60 62 62 63 66 69 68 68 67 65 61 61 63 62 60
99 99 99 96 89 86 88 88 86 88 90 90 92 92 85 77 75 74 68 64 61 58 56 55 57 58 57 55 60 64 62 60 61 59 57 56 56 56 65 73 66 55 57 65 67 70 79 83 64 37 31 45 52 42 34 35 35 35 36 34 31 33 37 43 48 48 45 46 52 55 56 61 62 61 61 65 69 71 70 67 67 67 66 66 66 65 64
100 97 94 90 84 85 90 87 81 87 96 95 92 94 92 83 77 74 69 63 61 61 59 56 57 61 62 62 64 65 62 61 61 59 58 62 64 63 68 76 75 67 63 64 67 72 77 71 48 27 28 41 43 35 33 35 36 40 43 39 34 35 37 40 46 51 53 52 51 52 56 60 60 59 61 65 68 73 72 67 65 68 69 70 71 70 68
98 92 91 93 90 88 89 87 84 90 97 92 85 86 85 78 73 72 69 61 57 60 63 60 57 60 68 70 65 62 61 61 59 55 56 63 70 68 65 68 71 68 65 68 75 78 68 51 37 34 40 44 39 35 38 42 42 43 45 44 41 41 41 44 50 56 56 54 52 53 56 59 61 63 64 62 62 67 70 67 65 67 71 74 76 74 72
95 85 85 93 92 86 87 92 92 90 89 85 80 78 76 72 68 64 61 59 60 62 65 61 57 62 70 70 65 65 69 67 60 55 57 63 69 68 65 65 67 68 71 79 82 70 48 30 27 38 49 50 45 44 50 53 52 50 49 48 48 48 47 49 53 54 51 49 49 52 55 57 59 62 64 60 58 60 63 63 62 67 74 78 77 72 71
94 82 81 91 92 86 86 90 85 78 77 78 76 73 70 68 65 62 63 66 66 65 64 63 61 63 66 64 63 69 75 72 64 61 64 67 67 66 67 70 69 66 68 70 62 48 38 34 33 38 45 49 49 52 57 59 57 56 54 52 51 50 50 51 52 50 47 47 50 52 53 54 56 60 64 65 61 57 56 58 61 65 71 73 70 68 72
92 83 86 95 94 86 82 79 73 70 72 73 71 69 67 65 66 68 69 69 67 65 65 65 63 63 64 64 66 72 76 74 69 66 67 67 66 68 77 87 84 74 67 60 45 34 37 44 42 39 44 50 52 56 60 61 58 57 57 56 54 53 54 55 55 51 47 50 54 56 55 55 57 59 65 69 66 57 51 52 57 60 63 66 66 67 73
92 87 90 92 89 81 75 72 72 72 70 66 65 67 67 66 67 68 69 71 71 67 63 64 67 68 68 69 75 82 82 76 69 69 75 77 71 68 75 85 83 70 59 52 41 32 35 43 44 44 49 56 60 61 60 58 57 58 60 58 56 56 56 56 54 51 48 51 55 56 55 56 59 62 66 69 67 58 49 48 52 53 53 56 61 66 69
96 94 93 92 92 87 79 76 78 78 71 65 68 69 67 67 67 65 64 69 71 66 61 63 67 67 65 69 78 84 81 73 69 73 82 84 79 70 69 71 66 53 44 42 43 42 43 46 47 47 50 57 63 64 61 60 62 64 61 56 52 52 51 50 50 51 52 53 54 55 55 56 58 60 61 61 60 57 53 52 52 48 44 45 53 60 64
97 98 94 89 88 85 78 75 78 77 70 66 67 66 65 67 69 64 60 63 70 71 68 66 64 65 71 78 82 80 75 73 77 82 81 76 72 72 70 64 54 45 41 43 49 52 51 50 50 51 54 58 63 63 60 60 62 62 56 50 48 47 46 46 47 49 50 50 52 55 57 55 53 53 54 55 59 66 68 61 52 47 45 44 46 51 54
97 96 90 83 81 81 79 78 79 77 72 69 68 65 64 66 64 58 57 65 74 76 71 64 64 71 78 79 77 77 77 79 84 85 78 67 61 62 61 55 47 43 44 48 52 54 55 56 56 57 56 58 60 60 60 61 62 56 49 45 45 46 47 48 48 48 49 49 49 51 53 53 51 53 57 61 67 75 75 64 52 47 48 47 44 44 46
Wind_Speed
23 25 26 29 33 34 36 39 39 39 35 24 15 8 3 3 1 4 15 11 1 6 7 2 5 4 1 0 1 2 1 1 1 1 1 1 2 1 2 1 2 1 1 1 1 1 1 1 1 0 1 0 1 1 1 1 1 1 1 2 2 1 1 2 5 3 1 1 2 1 3 3 1 2 2 2 2 3 2 1 1 2 3 3 2 4 6
23 24 25 27 31 33 35 38 39 37 34 26 16 5 2 2 1 2 15 12 2 4 4 2 3 3 1 1 2 1 1 1 1 0 1 1 2 1 1 0 1 1 1 1 1 0 1 0 1 0 1 1 1 0 1 1 2 2 1 1 1 1 1 1 3 4 3 3 2 3 3 2 1 2 1 3 4 4 1 0 2 1 5 4 2 4 7
23 23 24 26 29 32 34 37 38 36 32 25 14 4 1 2 0 2 11 16 9 4 2 4 5 3 3 3 2 0 1 2 1 1 2 1 1 1 1 1 1 0 1 1 1 0 0 0 0 1 1 1 1 1 1 2 3 3 3 2 1 1 1 1 1 2 3 4 4 3 2 2 2 2 3 2 4 6 3 0 1 2 4 4 3 6 10
21 22 23 24 26 30 32 35 37 35 31 23 13 6 2 2 2 3 6 11 9 4 2 4 6 4 4 3 1 0 1 1 1 1 1 1 1 1 1 0 1 0 1 1 1 1 1 2 1 1 1 0 1 2 1 1 2 4 4 2 0 0 2 3 3 4 4 6 7 5 3 4 5 3 4 4 4 6 4 2 2 4 2 4 6 7 11
20 21 22 22 24 27 29 33 35 33 30 23 11 6 5 2 1 2 3 4 5 5 4 5 4 3 3 2 1 2 2 1 0 1 1 1 1 1 1 0 1 0 1 1 1 1 1 3 1 1 1 1 1 3 2 1 2 3 2 1 2 1 4 3 3 7 8 8 11 9 5 7 9 8 6 6 6 6 6 5 6 2 2 6 7 4 9
20 20 20 21 22 25 27 30 33 32 28 22 11 4 4 3 1 1 0 1 2 3 3 4 4 3 3 2 2 2 3 1 1 0 0 1 1 1 1 2 3 1 0 0 1 0 0 1 0 1 1 1 1 1 1 2 4 3 2 2 2 1 3 2 0 6 10 10 13 12 7 8 10 10 8 6 7 9 10 11 9 2 2 9 9 9 12
21 20 20 20 20 23 25 27 31 30 26 23 17 7 3 4 3 1 1 2 1 0 2 3 4 4 3 2 2 3 4 3 1 0 1 1 2 1 0 2 3 1 1 1 1 1 0 1 2 1 1 2 1 1 1 1 3 2 2 2 0 1 2 1 0 7 12 11 11 9 8 7 9 11 11 8 9 11 12 12 9 6 9 13 13 15 16
22 21 20 20 19 20 23 25 28 29 25 23 19 11 4 2 1 1 2 3 2 0 2 2 3 2 1 1 1 2 4 4 2 1 1 1 2 2 1 2 3 2 1 1 0 1 2 3 4 2 2 2 2 1 1 1 3 3 1 1 1 0 1 1 1 5 10 8 5 4 7 8 10 12 11 8 9 10 10 10 8 6 10 13 12 14 14
22 22 21 21 20 19 20 23 25 26 25 21 13 8 7 3 1 1 2 2 2 1 1 1 1 1 1 0 1 2 3 3 3 1 1 1 2 2 2 3 4 2 1 2 2 0 2 2 3 3 2 2 2 2 0 1 3 2 1 0 1 0 1 2 2 4 7 4 2 5 7 7 9 13 13 9 8 7 7 7 6 7 8 9 8 8 9
22 22 22 21 20 19 19 21 22 24 25 20 11 5 8 6 3 3 1 1 2 2 1 1 1 1 1 0 1 1 0 2 2 1 1 1 2 2 1 1 2 1 1 3 2 1 2 1 1 1 1 1 1 2 2 2 3 3 2 1 1 1 1 2 2 2 5 3 4 8 7 5 5 8 8 8 7 6 6 5 7 9 7 5 6 8 9
22 22 22 21 21 20 19 19 20 22 24 22 13 7 9 7 3 2 2 2 1 2 2 1 1 1 1 0 1 1 1 3 3 1 1 0 2 2 3 2 1 1 1 3 3 3 4 3 2 2 2 1 1 2 2 2 2 2 2 2 1 2 1 2 1 1 5 7 9 8 5 2 4 3 3 5 5 6 7 7 8 9 7 5 7 9 10
22 22 22 22 21 20 19 19 19 19 20 20 15 12 13 10 2 0 2 2 1 2 1 1 0 1 1 1 2 2 2 2 2 2 1 1 1 1 2 2 1 1 2 4 5 5 4 3 2 1 2 1 1 1 1 2 2 2 2 3 2 2 2 2 0 1 4 7 8 7 3 4 5 2 3 2 2 1 5 8 9 10 9 9 10 11 11
23 22 22 22 21 20 19 18 17 17 16 16 16 16 16 13 6 1 2 2 1 1 0 1 1 0 2 2 2 2 2 2 1 1 2 2 1 1 2 3 0 1 4 6 5 3 2 3 1 1 1 0 1 1 2 3 3 2 1 1 2 2 1 2 1 2 3 4 4 1 6 10 8 4 3 2 3 3 3 8 9 8 9 10 9 10 10
24 23 22 21 21 21 20 18 17 16 15 14 15 16 17 15 9 3 1 2 2 0 2 0 1 2 2 0 3 3 1 1 1 1 1 2 2 3 3 2 0 2 6 5 3 1 2 2 3 2 1 1 1 1 1 2 2 1 1 1 1 1 1 1 1 2 1 3 3 4 7 10 7 2 0 2 2 1 1 4 7 6 6 6 6 9 9
26 24 22 21 21 20 20 19 17 15 14 13 12 13 15 15 11 4 2 2 2 1 1 1 2 4 4 2 2 3 2 1 1 1 1 2 2 2 1 1 1 3 4 2 1 0 1 2 2 3 3 2 2 2 1 2 2 3 2 1 1 2 1 0 0 1 0 1 4 4 5 6 4 4 2 1 2 2 6 1 7 5 2 3 5 8 8
28 26 24 22 21 20 20 19 18 16 14 12 10 11 13 15 12 6 3 2 2 2 1 1 4 5 4 1 0 1 2 1 1 1 0 1 2 2 0 0 1 3 2 1 0 1 1 0 1 2 2 1 1 2 2 1 1 3 3 2 1 2 2 0 1 2 1 0 2 3 3 6 6 5 3 0 1 4 7 3 6 4 2 4 7 8 8
26 27 25 23 22 20 20 19 19 17 15 13 11 10 12 13 12 7 3 2 2 1 3 1 3 4 3 2 1 1 2 1 1 1 1 1 2 2 0 1 1 2 1 1 1 0 0 1 1 2 3 1 1 2 3 1 2 3 1 1 1 1 2 2 2 3 3 2 3 3 4 7 7 4 4 2 3 6 6 5 6 5 5 6 6 7 8
24 25 26 25 23 21 20 19 19 18 16 14 11 9 10 13 11 6 3 3 2 1 3 3 2 1 1 1 1 2 1 1 1 1 1 2 2 3 3 2 1 2 1 1 1 1 1 2 2 2 3 1 1 1 2 0 2 3 2 3 2 1 2 3 2 3 4 4 4 4 5 7 5 3 5 4 4 4 3 5 6 6 6 6 5 7 8
21 23 24 24 24 23 21 20 19 18 17 15 12 8 8 11 11 6 2 2 2 1 4 5 3 1 2 2 1 1 1 1 0 1 2 1 1 3 4 1 1 1 1 1 1 1 1 2 1 1 2 2 1 1 1 2 3 2 1 1 1 1 2 2 1 2 4 4 3 4 6 4 2 5 3 3 2 1 4 6 5 5 6 7 5 6 6
18 20 22 23 23 24 23 22 20 18 16 15 12 8 7 10 10 8 4 1 2 1 3 6 5 4 5 4 2 2 1 0 1 2 1 2 2 3 2 2 1 2 2 1 1 1 1 2 1 1 1 3 1 0 2 4 4 3 2 3 3 3 2 2 3 4 3 1 1 3 6 4 5 6 2 1 3 5 6 5 4 5 6 7 6 6 6
15 17 19 21 22 23 23 23 22 20 17 15 12 8 7 9 9 8 6 2 1 1 2 5 6 5 5 5 5 5 4 3 3 3 2 2 3 3 1 2 3 3 2 2 2 1 1 2 1 0 1 2 1 1 2 4 6 4 2 2 3 3 4 3 3 3 3 2 3 4 5 5 7 6 3 5 7 7 5 5 6 6 5 5 5 6 6
12 14 16 18 20 21 23 23 23 23 20 17 13 7 6 9 9 7 6 4 2 1 2 4 6 6 7 7 7 6 6 5 4 4 4 3 2 3 2 1 3 2 1 2 2 1 1 2 1 1 1 2 1 2 3 3 4 4 0 1 3 6 6 3 3 4 4 4 7 9 7 5 6 7 8 10 10 9 7 7 8 7 5 4 4 6 6
10 11 12 15 17 19 21 22 23 23 23 21 17 11 7 7 7 6 5 3 2 1 1 3 3 5 7 9 9 9 7 6 7 7 6 4 2 2 2 2 2 1 0 1 2 2 2 2 1 1 2 3 2 2 3 4 4 4 3 3 6 6 4 3 2 3 2 5 11 13 12 12 10 9 9 11 11 9 8 7 7 7 6 5 5 6 7
11 10 11 12 14 16 19 21 22 23 23 24 22 16 10 8 7 7 5 3 2 2 1 1 2 3 4 5 8 9 8 7 8 9 8 6 3 1 2 2 2 1 1 1 2 1 1 1 0 0 2 3 2 2 4 5 5 4 3 4 5 2 3 2 3 2 2 5 10 10 10 12 12 9 8 9 10 9 7 7 7 7 7 6 6 7 6
12 12 11 11 12 15 17 19 21 23 24 24 23 18 13 10 8 6 4 2 1 1 2 3 3 3 3 3 4 7 8 8 8 8 9 9 5 1 1 1 2 2 2 2 2 2 1 2 1 1 3 3 2 3 4 4 4 2 1 4 5 1 2 2 5 4 4 8 13 12 11 13 13 11 9 8 8 9 8 7 7 7 6 7 7 6 5
11 12 13 12 12 13 15 17 19 21 23 25 26 20 14 11 9 5 3 4 4 1 1 3 3 2 3 3 4 6 7 8 9 8 8 9 7 4 2 2 2 2 2 2 1 2 2 2 2 3 4 3 1 2 3 4 3 1 4 6 2 3 2 2 3 4 6 10 14 14 11 12 12 11 9 8 8 9 8 6 5 6 6 7 8 8 8
10 12 13 14 13 13 15 16 17 19 21 24 27 21 13 10 9 6 4 4 3 1 2 3 2 1 3 5 6 7 7 8 9 8 7 8 8 8 6 4 3 2 2 1 0 0 1 1 2 4 4 2 1 1 2 3 2 2 7 6 3 4 5 3 1 4 7 8 10 8 5 8 10 7 7 8 7 6 7 6 6 7 8 8 8 9 10
10 11 13 14 14 14 15 15 17 18 19 22 26 21 11 8 9 7 5 3 2 2 3 3 1 1 2 5 7 8 8 8 8 8 7 7 8 9 8 8 5 3 3 2 1 1 2 3 3 3 2 0 1 2 1 1 1 3 8 7 5 6 6 5 4 7 9 11 12 6 4 9 10 6 6 7 5 5 7 9 8 9 9 8 7 8 8
10 10 11 13 14 14 14 15 16 17 17 21 24 17 8 5 9 11 9 6 4 3 3 3 2 1 2 3 4 6 8 8 8 8 7 7 8 9 9 8 6 4 3 2 2 2 3 4 3 2 2 2 1 2 1 0 1 7 13 11 8 8 8 9 9 11 12 14 12 6 6 11 10 7 8 8 6 7 9 10 10 9 9 9 8 8 8
10 10 10 10 12 13 13 14 15 15 16 19 19 11 5 2 5 9 13 12 7 3 2 2 3 2 1 2 3 4 6 8 8 8 7 7 9 9 9 7 6 4 2 0 2 2 2 2 2 2 1 1 2 1 2 3 2 9 18 16 9 8 10 11 12 12 13 13 9 4 7 11 10 8 10 11 12 12 10 9 11 11 10 10 8 8 10
10 10 9 9 10 11 11 13 14 14 14 15 11 5 1 2 6 13 19 18 9 2 1 2 3 2 1 1 2 3 5 7 7 7 7 7 6 7 8 6 4 4 3 1 1 1 1 2 3 2 0 1 2 1 3 3 2 9 20 17 6 8 10 10 10 11 14 12 9 7 10 11 8 8 9 10 12 12 9 8 11 12 11 12 12 11 13
9 11 10 9 9 9 9 11 12 13 13 12 8 6 8 11 15 21 22 16 7 2 1 2 2 2 2 1 1 3 4 4 4 3 4 4 4 4 5 4 3 3 4 2 0 1 2 3 3 2 2 3 2 1 2 3 4 13 24 20 5 5 7 8 8 10 11 9 6 10 13 12 8 9 9 8 9 9 9 9 11 11 11 11 12 13 14
9 10 11 10 9 8 8 10 11 12 13 13 13 14 15 16 17 18 16 11 6 3 2 1 1 3 2 0 1 5 7 4 1 1 2 2 3 3 3 3 2 2 3 3 2 2 2 2 2 2 2 3 3 1 3 7 12 19 25 22 12 6 8 9 9 11 11 9 7 8 12 15 13 11 11 11 11 11 12 12 11 9 8 8 9 11 12
9 9 10 11 11 9 9 9 10 12 13 12 12 14 14 14 15 15 12 7 5 3 2 1 1 3 2 1 1 5 9 5 2 3 2 1 2 2 2 2 2 1 3 4 3 2 1 2 2 2 1 2 2 1 4 11 17 20 21 21 16 11 9 10 10 10 10 8 8 10 13 16 15 13 12 13 14 14 13 12 10 8 8 8 8 9 10
8 8 9 11 11 11 10 10 10 11 11 10 11 11 12 13 14 13 9 4 3 2 2 3 2 3 3 2 3 5 9 5 1 3 2 1 1 1 1 2 2 2 3 3 1 2 3 3 3 3 2 3 3 4 7 13 17 17 17 17 15 10 8 9 10 10 9 7 7 9 10 11 12 12 12 13 13 10 9 9 8 8 8 9 10 9 8
7 8 8 9 10 10 10 8 7 7 6 7 10 12 13 16 16 13 9 7 7 5 2 1 2 4 4 3 4 4 7 3 0 1 1 1 1 1 0 1 2 2 1 1 2 3 3 2 2 2 3 4 6 8 10 12 15 16 18 19 16 10 9 12 13 11 11 10 9 8 8 9 11 11 11 13 12 8 7 8 8 7 9 11 10 8 7
7 7 7 7 8 7 6 4 4 4 6 10 14 16 16 15 12 10 7 6 9 9 4 2 5 5 4 2 3 3 6 3 1 2 2 0 1 1 1 1 3 1 1 1 4 4 2 0 1 3 6 7 8 10 9 10 12 14 16 20 19 12 11 13 12 10 12 14 13 10 7 8 10 9 9 11 12 8 8 9 8 8 10 10 9 8 9
6 6 5 5 5 3 1 2 5 7 10 12 13 11 9 5 3 4 3 2 5 6 3 3 6 3 2 2 3 4 5 1 1 2 2 1 0 1 1 1 2 1 1 4 4 4 2 1 1 5 8 8 9 11 10 10 12 13 14 18 19 15 12 12 11 9 10 12 14 12 8 7 9 9 8 9 10 9 8 8 9 9 9 10 11 11 11
3 3 3 3 2 0 2 6 9 11 10 8 6 4 2 1 1 2 1 2 2 2 3 4 4 1 3 4 3 1 3 2 2 0 2 1 1 1 1 1 1 2 1 5 2 4 1 2 3 5 6 5 7 11 12 12 13 15 14 17 19 16 12 11 11 11 10 12 14 13 9 8 10 10 9 8 8 9 9 8 9 11 12 13 14 13 12
2 2 2 1 1 4 7 9 9 8 7 4 1 0 0 1 2 1 0 0 2 2 3 3 2 0 2 3 3 2 3 4 3 2 3 2 1 1 1 1 1 2 1 5 2 2 1 2 3 6 7 4 5 9 10 11 12 14 14 15 17 16 14 13 14 14 13 13 15 15 13 11 11 10 10 9 9 9 10 9 9 12 14 14 14 15 15
1 2 1 1 5 8 9 8 6 4 3 1 1 1 1 2 2 0 1 1 2 1 1 0 1 2 1 2 3 3 3 1 1 0 1 1 1 1 2 2 1 1 2 5 1 2 0 2 3 7 8 5 4 7 7 7 9 11 13 14 14 15 16 16 16 16 13 10 11 14 15 15 14 13 12 12 10 9 11 12 13 15 16 15 15 17 18
3 2 3 5 7 8 6 4 2 1 0 0 1 2 2 2 1 1 0 1 2 2 1 0 1 2 2 1 1 1 0 1 1 1 1 1 1 1 1 1 1 1 3 3 2 2 1 2 5 9 8 6 6 5 4 5 8 11 11 10 10 13 15 13 12 15 15 11 11 14 17 17 17 16 16 15 14 14 15 17 17 18 18 17 17 19 20
4 3 3 4 4 2 1 1 2 1 1 1 2 2 2 1 1 1 2 2 1 1 1 1 1 2 2 2 2 2 1 0 0 1 1 1 1 2 1 1 0 2 2 1 2 2 3 3 8 12 8 5 3 5 5 7 10 9 8 8 9 14 16 12 11 15 17 13 13 17 18 19 21 21 19 17 16 18 22 23 22 21 21 20 19 21 22
1 0 1 1 1 0 1 1 2 3 3 4 4 3 2 2 2 2 2 1 0 1 2 2 2 2 3 2 1 1 1 0 0 0 0 0 1 1 1 1 2 2 1 2 1 4 3 5 11 12 4 1 3 7 8 9 7 6 8 10 11 12 13 12 11 13 14 13 14 16 16 18 21 22 21 18 16 17 23 27 24 21 20 19 21 24 24
1 1 1 1 1 1 1 1 1 3 4 4 4 3 3 3 1 1 2 1 0 1 3 3 2 1 3 3 1 1 1 1 0 0 0 1 1 1 2 2 1 1 1 2 3 3 4 9 12 7 1 3 7 8 7 7 5 5 7 10 10 9 9 10 9 8 10 13 16 16 16 17 18 18 20 21 18 17 21 25 24 21 18 18 20 24 23
2 0 1 2 3 2 2 2 3 3 3 3 3 4 4 4 2 2 1 1 1 2 3 3 2 1 2 2 1 1 1 0 1 1 1 2 1 2 1 1 1 0 2 3 4 5 10 14 10 3 4 7 7 6 5 6 6 5 6 7 8 7 7 7 8 8 11 15 18 18 18 18 18 17 19 22 23 21 21 23 24 22 19 18 21 24 22
1 0 1 2 3 3 4 4 3 2 2 3 4 4 4 4 3 2 2 2 1 1 2 2 2 1 2 2 1 1 1 0 1 2 1 2 1 2 0 1 1 3 3 5 8 11 11 8 3 1 2 4 5 5 6 6 7 7 6 6 7 9 9 9 10 13 16 19 19 19 20 21 21 19 19 21 24 25 24 23 22 21 20 21 25 26 23
1 1 2 2 2 4 6 4 1 2 3 4 3 3 3 3 2 3 4 4 3 2 1 0 2 2 2 1 0 1 2 1 1 2 0 1 1 1 0 1 4 3 4 8 13 14 8 2 3 2 3 3 3 5 6 6 6 7 7 7 8 10 11 10 11 14 18 19 18 18 20 22 23 22 19 19 23 27 27 24 22 21 21 23 26 26 24
4 3 3 3 3 4 2 0 2 5 6 4 3 3 3 3 5 5 5 5 3 2 3 3 0 2 2 0 0 1 2 2 2 1 0 0 2 2 2 3 6 7 9 11 12 10 5 1 3 2 4 4 3 5 5 5 6 6 7 8 9 10 11 12 14 18 20 19 17 19 22 23 22 21 19 18 20 25 28 27 25 25 26 26 26 27 27
5 4 3 4 5 4 1 1 5 9 7 3 3 4 5 5 5 5 6 5 2 2 3 2 1 2 2 1 1 2 3 2 2 2 2 2 3 3 4 6 9 12 13 9 4 3 3 1 1 3 5 6 6 6 6 6 6 6 8 10 12 13 14 17 19 21 22 21 20 21 23 23 21 21 20 20 22 26 30 32 31 31 31 30 28 28 29
5 5 4 5 7 7 3 2 6 9 7 4 3 4 4 3 4 5 8 7 4 3 2 2 1 1 2 2 2 2 1 0 2 3 5 4 3 4 8 12 14 15 12 6 3 1 1 2 3 4 6 6 5 6 6 7 8 10 12 13 14 16 18 21 23 24 26 27 26 24 23 24 25 24 23 25 26 24 23 29 34 33 31 30 29 28 29
5 4 2 3 7 8 6 6 7 9 8 6 4 3 4 4 4 2 6 7 4 2 3 3 2 2 3 3 2 1 0 0 2 4 6 6 5 8 12 15 14 11 9 7 5 4 4 4 4 5 6 6 7 8 9 10 11 13 15 16 16 18 20 22 25 27 29 30 32 31 30 29 29 27 24 23 22 15 13 21 31 33 30 30 31 30 31
Wind_Direction
11 7 3 2 3 4 3 5 5 6 9 11 10 23 52 38 88 341 353 354 39 63 66 41 26 67 106 297 76 41 33 125 149 213 205 264 271 351 54 48 50 62 246 218 229 340 5 298 247 203 314 344 141 168 251 258 246 28 77 102 51 11 177 256 275 274 358 286 250 286 3 25 25 243 191 137 146 168 199 255 0 328 268 256 259 260 266
15 10 6 3 3 4 4 5 5 5 7 8 11 33 105 44 199 328 6 10 85 94 82 121 80 80 154 122 73 21 2 39 56 156 53 353 303 21 75 82 77 99 286 285 225 195 65 217 201 184 287 260 165 208 311 344 27 46 62 41 349 343 164 242 301 318 336 337 329 331 353 12 243 228 146 125 120 108 89 195 91 324 251 226 226 266 272
18 14 9 4 4 4 4 5 6 6 6 7 15 34 184 30 189 265 17 33 62 101 117 131 120 123 128 97 80 161 59 42 14 333 22 23 325 24 80 347 355 24 301 312 237 237 8 283 148 32 299 248 137 171 290 359 39 62 55 16 325 267 263 279 337 347 325 311 301 302 319 302 257 168 131 133 139 141 152 264 150 242 252 227 223 261 279
21 17 12 7 5 5 6 6 7 7 6 6 19 39 27 49 38 315 359 31 52 72 55 85 108 139 131 96 34 42 74 121 205 314 353 16 325 329 126 291 321 326 267 245 223 210 51 48 43 267 263 275 103 142 161 51 57 62 46 30 49 264 271 252 221 221 239 256 263 279 332 300 277 242 189 180 171 166 143 87 210 215 266 279 250 250 282
24 21 16 11 7 5 7 8 8 9 8 6 18 39 28 54 59 347 337 8 38 49 32 49 90 143 135 109 126 93 79 110 168 339 341 51 333 313 30 355 259 276 287 276 237 191 104 71 41 279 266 339 64 131 145 105 95 83 73 156 132 355 272 258 239 241 240 251 267 282 298 270 264 266 234 183 167 164 155 194 230 191 36 281 257 265 296
22 22 19 15 10 7 8 9 11 12 12 13 26 39 20 51 138 251 349 23 31 38 10 15 56 75 83 106 145 125 118 159 210 51 42 4 232 191 41 262 239 237 338 349 3 284 163 93 282 280 263 300 15 151 155 107 124 119 133 189 133 44 275 275 263 264 264 263 267 270 264 255 255 258 251 209 179 175 188 225 239 187 212 258 274 305 295
18 20 21 18 13 9 8 10 14 16 17 26 43 53 29 65 96 302 18 101 102 262 295 342 36 58 73 103 153 152 153 176 229 108 103 273 222 166 113 228 206 158 98 88 26 310 337 272 267 227 181 243 237 238 320 97 161 193 177 186 143 131 248 258 233 283 285 279 269 254 233 247 260 255 250 232 207 199 209 236 244 223 243 262 280 290 283
16 17 18 19 17 12 10 11 16 19 21 32 46 48 25 58 96 347 47 87 89 247 294 351 27 34 45 97 176 192 176 179 198 179 160 184 177 171 187 169 136 106 89 120 227 240 152 202 232 198 174 245 222 199 281 134 180 231 197 165 318 284 257 308 73 302 296 291 293 255 220 234 261 266 259 236 226 224 221 236 245 237 253 262 265 273 277
17 16 16 17 18 16 13 13 17 20 24 35 51 41 23 30 268 313 68 70 10 339 339 13 37 6 334 129 170 228 202 170 156 140 87 119 159 185 171 140 121 85 0 254 241 14 93 170 217 185 167 230 199 174 289 89 146 192 183 119 330 146 292 335 30 321 290 275 290 276 255 245 260 272 271 245 228 227 215 218 212 200 236 265 268 268 274
19 18 16 16 16 18 16 15 18 19 24 39 60 34 16 17 315 316 78 107 329 328 329 354 85 59 308 148 131 172 131 68 91 95 17 78 81 33 20 95 131 123 264 256 244 28 13 8 344 302 261 271 194 134 91 87 133 156 147 115 38 95 324 324 15 306 278 282 299 292 302 317 280 265 253 223 212 224 232 233 217 206 220 261 266 262 272
21 19 18 17 16 18 18 18 20 21 26 40 59 49 21 16 329 313 44 64 340 326 339 14 117 140 222 53 64 88 50 37 53 98 205 101 49 356 323 357 25 176 244 277 290 300 296 302 309 295 298 320 15 78 94 123 120 121 138 142 125 99 126 278 323 266 278 303 316 316 341 340 271 249 186 174 191 221 236 244 238 227 221 225 246 268 285
23 21 18 18 17 17 20 21 23 27 32 38 49 49 32 24 14 295 33 32 332 321 337 272 191 44 324 325 30 70 91 81 57 76 115 110 64 310 313 11 47 239 298 299 284 273 273 287 305 5 57 45 50 60 223 189 108 53 79 116 134 145 182 249 222 213 274 307 333 346 343 257 260 330 47 56 77 173 256 272 264 253 251 253 264 278 283
25 24 21 19 17 17 19 22 24 29 35 35 38 42 36 31 37 48 37 37 338 335 76 238 242 98 283 297 52 83 106 110 89 69 77 78 111 111 16 20 102 281 325 310 297 302 293 281 284 96 98 137 183 212 225 184 119 91 125 125 145 157 178 273 243 219 271 324 359 329 280 289 307 4 25 0 38 56 318 292 267 244 247 254 259 268 275
24 25 24 21 18 16 17 20 22 25 29 31 36 40 36 34 41 52 70 51 347 351 121 54 328 164 197 164 101 115 123 76 59 60 69 50 68 80 40 14 325 305 316 310 308 353 337 312 323 333 337 351 352 329 193 133 78 42 178 187 205 172 159 315 271 224 255 317 288 249 281 307 323 348 283 331 348 119 135 284 274 253 239 244 257 272 281
21 23 24 23 20 17 16 16 18 20 22 25 35 42 37 35 39 56 120 104 357 322 146 164 183 156 150 146 132 130 106 47 2 26 78 69 71 68 27 0 326 300 308 327 339 344 4 358 344 327 317 326 334 315 185 124 30 357 353 319 291 256 247 224 276 261 100 328 298 304 316 305 275 230 230 349 351 105 112 105 286 272 216 227 260 269 277
20 21 22 23 22 19 16 14 14 15 17 17 24 34 35 32 33 44 102 111 42 323 276 190 152 137 119 89 54 122 136 163 184 154 46 71 99 99 114 308 314 294 306 30 320 311 16 262 268 298 285 257 249 280 271 188 331 338 342 308 261 273 287 276 220 277 293 246 268 275 276 268 248 220 205 241 5 89 89 25 294 262 218 256 254 254 268
19 22 21 20 21 20 18 15 12 12 12 12 16 26 29 27 29 41 84 109 87 291 279 248 123 114 101 79 26 235 203 168 138 152 245 180 128 107 118 231 231 261 300 47 132 233 317 237 253 278 264 212 139 267 284 303 291 302 330 184 189 246 264 195 196 245 233 208 248 253 250 263 256 200 164 140 78 84 62 338 290 240 239 253 243 246 262
14 20 21 20 19 19 19 18 14 12 10 7 8 18 23 20 22 35 75 105 91 275 246 204 145 121 137 143 193 205 174 101 92 93 100 132 150 147 165 183 185 217 258 48 91 213 253 246 226 238 263 265 121 244 276 11 264 262 192 162 170 190 205 184 193 260 233 207 244 271 261 264 262 162 134 121 83 63 14 288 255 232 249 256 244 254 262
8 13 18 19 18 17 17 18 17 15 11 6 4 9 16 16 18 21 39 119 115 254 211 179 168 184 157 116 74 80 48 25 102 115 101 248 244 137 146 184 336 164 187 35 29 223 226 248 230 158 264 271 192 200 254 218 233 241 153 172 231 188 185 172 167 250 233 207 235 282 280 262 161 114 94 82 79 311 264 243 234 252 278 282 271 266 264
1 6 11 14 16 17 16 15 16 15 13 10 7 4 3 6 14 19 16 98 132 278 216 184 184 187 168 154 144 145 121 357 168 149 147 229 204 124 103 290 266 154 160 189 267 242 194 235 260 125 232 256 215 138 265 251 251 242 194 221 226 181 169 217 201 193 205 220 305 300 287 261 138 116 52 56 183 239 270 277 272 269 277 289 285 268 254
354 358 3 6 10 14 14 14 13 12 12 12 10 7 358 354 2 15 14 29 126 286 253 199 195 195 188 191 187 176 172 170 170 160 122 142 178 159 125 254 194 170 180 175 178 241 203 197 231 151 235 258 170 177 269 286 289 279 213 214 236 188 179 221 225 186 163 186 223 229 234 210 165 163 232 232 217 242 280 295 289 281 275 281 281 267 248
342 350 357 360 2 6 9 11 12 10 9 9 6 5 1 351 350 355 1 21 83 152 231 202 205 216 222 223 218 212 210 202 191 174 143 127 179 175 159 195 184 189 215 155 163 274 234 171 193 247 250 255 228 230 241 255 284 293 289 176 241 215 192 195 232 224 192 204 239 254 263 247 204 208 240 253 255 266 274 271 278 286 277 263 264 262 252
322 336 347 352 355 358 0 4 8 8 8 7 4 1 357 353 350 340 330 347 36 20 191 182 212 242 244 237 234 234 230 220 217 206 180 163 186 192 193 208 196 210 302 148 175 203 179 172 188 218 246 238 218 248 259 241 242 254 244 239 239 221 166 126 218 262 283 259 254 260 272 274 259 238 241 254 262 267 267 261 263 267 263 256 251 250 245
299 312 326 339 346 349 352 356 360 3 5 5 3 358 350 347 356 353 332 305 308 331 327 190 208 239 244 233 226 227 224 215 215 214 201 191 189 207 226 203 155 132 230 208 180 139 135 193 175 116 249 232 188 224 257 249 241 238 244 268 267 236 110 128 227 264 340 280 258 249 252 265 272 269 262 260 259 256 250 245 247 253 253 247 245 247 241
286 293 303 319 331 338 343 348 351 355 358 359 360 358 349 340 349 4 357 310 264 314 313 280 246 220 221 221 212 215 219 216 211 208 208 210 205 191 215 185 152 163 186 173 117 104 152 227 188 188 233 234 205 203 216 230 242 212 209 259 266 268 91 204 227 216 220 257 269 270 268 271 276 278 275 271 266 262 255 240 237 245 249 246 249 247 233
284 285 289 299 311 321 330 337 344 348 350 351 354 356 352 340 338 357 5 321 294 226 231 272 260 215 211 226 230 222 214 210 209 206 210 219 220 213 191 131 118 125 118 108 115 142 192 231 209 208 225 234 232 207 211 245 276 264 247 253 228 127 169 213 225 245 255 267 275 280 285 282 272 263 260 259 254 256 262 258 250 252 257 262 263 251 232
288 284 284 289 294 302 314 324 332 341 346 347 347 348 350 347 343 357 29 3 327 246 217 257 262 222 217 229 240 236 216 207 211 211 212 219 217 211 202 184 159 127 112 115 298 116 195 239 224 220 225 236 272 226 229 268 294 264 258 256 140 143 217 212 196 272 271 264 262 267 292 291 275 259 253 253 247 249 264 274 272 265 260 257 261 258 242
294 287 286 286 286 292 302 311 320 331 339 343 342 339 344 2 5 13 38 35 358 304 269 260 263 327 266 244 234 224 212 208 206 200 202 210 205 198 201 203 192 154 150 181 182 152 205 211 209 222 229 251 283 258 255 339 10 263 255 235 175 193 219 181 180 242 258 265 267 262 267 276 279 284 272 252 229 232 256 261 260 262 263 255 249 256 254
299 294 290 287 287 291 294 300 311 321 330 339 342 338 334 9 32 38 36 23 355 329 304 286 297 316 250 218 203 199 199 197 191 184 190 202 199 195 202 211 209 187 171 186 198 212 222 213 202 216 207 167 200 262 282 274 235 257 258 243 205 205 216 207 221 247 262 272 275 262 248 267 281 296 287 268 239 236 254 262 261 261 263 255 240 237 242
309 302 296 293 294 294 293 296 303 312 324 337 343 337 308 321 27 22 8 359 351 342 328 306 293 277 216 158 155 174 179 175 174 179 184 188 193 196 198 206 207 193 174 243 208 209 251 255 229 242 251 184 174 201 262 256 245 264 268 260 226 209 224 222 225 241 253 263 269 256 256 273 287 292 284 274 260 251 253 259 259 255 252 248 236 227 232
316 312 307 305 303 302 300 298 299 306 319 334 346 351 282 293 318 325 331 334 333 314 274 274 268 268 279 99 125 152 160 154 155 167 173 173 183 191 190 192 196 187 187 213 206 197 246 231 216 227 277 189 177 185 236 253 271 273 274 272 223 191 226 230 224 237 250 262 285 296 282 280 286 285 281 271 256 245 236 242 250 247 242 240 235 232 236
312 315 317 314 308 309 308 301 298 301 307 316 317 291 275 286 297 305 313 319 316 294 279 280 279 281 283 262 151 153 154 148 145 155 162 165 169 175 179 184 191 192 192 184 119 237 228 203 204 226 189 164 160 178 224 222 229 258 270 275 250 187 231 242 236 246 253 254 274 295 292 285 267 249 252 253 239 224 218 232 246 244 239 241 242 243 245
300 308 315 314 312 318 316 306 301 299 298 299 295 287 286 292 298 304 310 309 292 269 251 230 278 267 248 224 139 165 160 143 131 175 182 179 169 158 171 188 199 216 209 192 194 230 217 153 160 232 216 168 161 171 227 228 235 250 263 273 276 267 267 264 256 260 262 246 226 242 265 272 268 257 259 264 260 247 243 248 254 250 240 240 246 248 247
305 308 314 316 318 324 325 318 307 300 299 299 293 289 292 297 302 311 314 299 270 272 255 201 269 268 235 33 352 191 175 157 148 176 182 188 168 160 161 168 177 227 210 198 209 243 228 156 160 198 217 168 156 190 247 244 246 252 261 271 279 281 279 272 263 258 257 247 226 224 241 260 274 283 284 279 272 267 263 258 252 247 244 247 251 249 245
317 320 322 322 325 328 328 321 307 298 296 292 286 287 295 300 306 315 312 268 225 290 273 198 225 259 231 282 293 206 173 154 131 166 170 171 176 182 138 137 180 238 208 183 199 224 204 183 174 189 187 149 161 209 238 246 252 258 265 272 277 281 281 278 272 268 263 252 239 240 247 258 270 275 277 276 276 275 269 255 239 231 242 256 256 246 237
316 323 328 332 335 332 327 315 300 293 290 286 288 293 298 300 301 299 286 247 225 240 262 215 226 220 195 227 266 182 152 148 64 107 98 88 154 196 59 141 201 245 169 140 231 233 208 175 159 191 195 178 198 220 227 236 252 264 271 276 277 273 270 273 275 283 289 281 263 254 254 258 262 264 269 276 280 274 262 258 246 227 236 254 258 249 239
324 326 332 347 350 340 325 308 300 296 288 292 300 302 299 296 290 279 270 248 229 229 231 271 257 227 178 227 261 165 152 174 157 116 121 146 163 161 120 180 216 238 17 261 237 221 207 94 136 216 226 221 225 232 228 233 249 259 267 276 280 275 270 273 276 286 295 294 288 278 259 254 261 262 262 271 277 270 255 252 245 229 233 246 251 246 242
333 332 343 8 16 8 332 325 332 322 304 301 308 308 297 286 275 260 243 211 219 217 196 233 258 242 138 252 247 159 154 169 39 98 178 207 114 122 130 230 223 186 298 268 221 152 114 338 236 242 246 239 241 249 244 243 253 255 256 267 275 276 275 279 282 283 287 290 290 285 273 268 274 270 257 260 267 264 251 245 242 237 234 239 246 247 244
347 354 9 23 29 257 285 309 320 323 319 316 321 317 281 212 220 265 228 173 205 211 188 227 254 201 166 224 259 142 145 131 55 349 220 202 212 199 188 251 253 100 315 275 228 131 159 244 233 252 256 229 230 248 247 240 249 255 256 261 268 273 277 278 273 264 255 258 267 271 269 269 275 275 271 270 272 270 261 250 244 243 241 242 245 245 241
37 40 40 27 300 293 299 303 309 321 327 323 298 245 241 203 210 237 187 200 252 229 200 223 277 18 182 211 235 242 197 159 151 203 202 191 227 184 136 248 248 108 210 266 238 121 199 251 245 262 257 215 207 239 239 231 241 251 254 257 266 276 279 275 271 267 259 258 266 272 269 261 259 264 271 276 279 280 277 268 257 253 251 248 245 241 240
122 126 138 294 304 305 305 302 301 313 335 336 233 229 248 240 236 274 12 295 274 258 182 131 332 320 286 204 198 223 224 165 132 220 155 190 272 92 122 248 272 103 240 258 226 91 312 263 253 260 253 223 219 238 233 233 250 258 259 264 276 283 282 279 280 281 276 269 273 279 278 273 268 265 266 266 266 269 275 278 276 271 264 257 253 252 251
226 240 292 307 308 306 305 300 284 268 113 146 238 246 234 227 245 9 316 244 264 295 340 16 272 271 274 250 225 276 349 51 14 34 104 243 294 96 135 283 349 157 242 261 68 74 249 242 263 265 247 209 217 245 241 237 250 256 264 280 290 285 281 285 293 292 286 277 275 281 286 286 282 278 276 273 271 270 271 272 273 276 275 271 267 263 259
255 272 303 314 312 304 291 246 200 168 146 192 218 229 233 229 241 257 236 219 222 313 318 341 332 315 322 356 12 8 27 75 1 62 136 235 322 75 71 352 320 222 255 15 61 236 224 213 253 262 245 186 211 286 291 272 267 276 299 313 300 285 285 292 296 292 292 289 281 281 286 289 289 290 289 283 276 275 275 274 272 273 276 276 272 267 261
268 349 3 339 324 217 202 189 169 177 207 217 206 202 214 205 180 195 227 243 14 297 304 334 348 323 320 334 343 333 331 328 1 49 155 240 51 86 133 229 225 232 348 45 221 243 238 232 249 261 272 91 277 282 279 276 289 319 324 311 303 304 313 319 309 299 301 305 298 293 293 293 294 297 298 291 280 273 275 279 280 277 273 272 269 266 262
191 93 80 9 279 207 172 159 176 198 218 218 198 193 212 225 216 204 218 237 281 283 303 335 1 309 297 310 316 300 318 357 51 217 172 110 93 168 205 227 252 11 11 260 252 262 259 251 253 261 220 211 246 258 265 279 304 329 315 309 317 330 331 322 310 305 314 319 317 314 309 303 301 302 301 298 293 280 273 277 282 280 273 268 266 265 264
232 104 122 237 242 207 183 215 220 212 210 207 194 194 204 220 233 224 201 218 329 318 315 328 349 325 290 302 315 311 319 349 240 239 128 108 185 229 197 131 40 100 222 245 252 246 248 254 261 247 184 218 246 274 289 294 305 313 304 302 311 319 317 309 309 320 330 330 327 323 316 310 307 304 300 300 300 293 282 280 283 282 274 266 265 267 267
232 77 179 244 245 218 209 218 224 225 207 197 198 197 186 178 181 185 181 188 204 6 343 333 336 306 277 285 303 294 298 287 251 257 139 117 219 264 56 79 230 215 208 231 242 242 246 257 282 93 198 238 275 302 304 300 303 307 306 308 320 337 347 346 342 342 339 334 328 324 320 316 312 308 303 301 301 299 297 295 293 287 277 271 273 276 273
199 197 211 224 235 228 221 215 241 281 252 222 212 207 171 158 203 227 202 187 182 162 138 21 328 304 288 293 68 292 296 292 258 263 260 117 219 257 179 215 241 235 213 225 238 244 246 187 130 186 266 273 264 274 289 299 300 307 324 339 344 345 345 340 335 332 329 326 324 320 316 314 312 309 305 300 298 300 304 305 301 295 286 280 279 279 274
237 241 231 227 246 254 248 340 299 265 246 225 227 243 231 239 256 239 191 173 179 162 138 127 141 265 262 251 125 244 251 227 211 239 356 178 234 239 214 214 236 243 236 232 240 255 270 183 162 244 300 315 298 283 291 295 296 311 331 335 330 329 327 323 323 322 320 320 318 312 309 309 308 305 301 297 294 298 303 304 300 295 291 286 281 278 274
237 241 235 229 243 261 322 16 280 269 257 216 215 236 236 251 262 231 182 170 162 120 119 129 199 217 225 263 273 236 230 212 186 193 216 213 214 228 234 232 234 240 243 244 250 274 274 267 37 333 315 311 306 301 301 303 306 315 321 320 321 325 325 322 321 319 317 314 311 306 304 303 298 294 293 292 291 294 298 298 294 292 293 291 286 278 274
233 240 234 223 234 246 250 243 263 270 268 252 243 242 231 243 254 216 185 172 148 122 154 208 219 186 216 240 237 234 249 139 136 202 229 223 197 207 230 237 238 243 254 278 354 19 269 298 334 316 301 297 290 283 287 294 297 299 305 312 320 325 326 324 321 318 315 313 310 304 297 293 290 290 292 292 291 291 293 294 294 295 296 295 292 285 278
231 245 260 229 228 238 249 258 267 273 272 267 270 264 247 261 278 216 172 164 156 171 203 210 201 211 229 228 203 180 256 256 212 229 237 233 219 222 233 241 247 256 273 297 313 310 300 299 284 271 276 284 281 278 281 285 288 295 304 312 317 319 318 316 313 311 310 311 308 303 298 295 294 294 293 289 286 283 282 288 293 297 297 294 293 290 286